User: anonymous   Login
Location: *
(58.7167°N, 26.1833°E)
Time: 14:42:05
(UTC+00:00)
Language:

Cosmos 1892 Rocket - Orbit

View from above orbital plane
View from above orbital plane
View from above satellite
View from above satellite

Ground track
Ground track

The orbit data is extracted from the following two-line orbital elements,

1 18422U 87088B   19291.62471309  .00000066  00000-0  51010-5 0  9996
2 18422  82.5089  97.1223 0020454 144.4423 269.7981 14.83014019728305
Epoch (UTC): 18 October 2019 14:59:35
Eccentricity: 0.0020454
inclination: 82.5089°
perigee height: 605 km
apogee height: 634 km
right ascension of ascending node: 97.1223°
argument of perigee: 144.4423°
revolutions per day: 14.83014019
mean anomaly at epoch: 269.7981°
orbit number at epoch: 72830

The dashed part of the orbit path shows where the satellite is in the earth's shadow,  

DLR